Wind_Speed
25 25 24 24 24 24 24 24 24 24 24 24 24 24 24 24 24 24 24 24 24 24 24 25 25 26 27 27 28 28 29 30 30 31 32 32 32 32 31 30 30 30 29 30 30 30 29 29 30 29 28 28 28 27 27 28 28 28 25 23 20 17 17 18 16 19 24 28 31 32 34 38 38 37 37 36 35 34 36 35 32 31 30 31 32 33 34 35
26 26 25 25 25 25 25 25 24 24 24 24 24 24 24 24 24 24 24 24 24 24 24 24 25 25 26 27 28 28 29 30 30 31 32 32 32 32 31 30 30 30 30 30 30 30 29 30 30 29 27 27 27 27 27 28 28 27 25 22 17 15 18 20 18 20 26 30 33 35 36 38 38 37 37 36 35 36 36 35 33 31 31 32 32 33 34 35
28 27 26 26 26 25 25 25 25 25 24 24 24 24 24 24 24 23 23 23 24 24 24 24 24 25 26 27 27 28 29 30 30 31 31 31 31 31 31 30 30 30 30 29 29 29 29 29 28 27 26 25 26 26 26 26 26 26 25 21 16 17 21 21 20 22 28 32 35 37 38 39 40 39 39 38 38 39 39 38 37 35 33 33 33 33 33 33
28 28 28 27 27 26 26 26 26 25 25 25 25 25 25 25 24 23 23 23 24 24 24 24 24 25 26 26 27 27 28 29 30 30 30 30 30 30 30 29 29 29 29 28 28 28 29 28 27 26 25 24 25 26 24 24 25 26 24 19 17 20 21 21 22 24 28 32 36 38 40 41 41 39 37 35 37 39 39 38 37 34 32 31 32 33 33 33
29 29 29 28 28 27 27 27 27 26 26 26 26 26 26 26 25 24 23 23 24 24 24 24 24 25 25 25 26 26 27 29 28 29 29 29 29 29 29 28 28 28 28 27 27 28 28 27 26 26 25 24 26 26 23 24 26 26 23 19 20 20 19 21 23 24 27 30 34 37 39 40 38 37 34 28 28 31 32 33 31 28 27 28 29 31 32 33
30 30 29 29 28 28 28 27 27 28 28 28 28 28 27 27 27 26 24 24 24 24 24 24 24 24 25 25 25 25 26 27 27 28 28 28 28 28 28 27 27 27 27 27 27 27 27 26 26 25 24 25 26 25 24 26 27 26 22 19 20 20 19 22 23 24 26 28 32 35 35 35 34 34 30 24 24 24 24 26 25 25 25 25 26 27 27 28
30 30 30 29 29 29 28 28 28 28 29 29 29 28 28 28 27 27 26 25 24 23 23 24 24 24 25 25 24 25 26 26 26 26 26 26 26 26 26 26 26 26 27 27 27 27 26 26 25 25 25 25 26 25 27 29 29 26 23 21 21 21 21 22 24 25 26 26 29 32 31 30 29 30 27 24 25 23 22 23 23 23 21 20 21 22 21 22
29 30 30 29 29 29 28 28 28 28 29 29 29 28 28 27 27 27 26 25 24 23 24 23 24 24 25 24 24 24 25 26 25 25 25 25 25 25 25 25 26 26 26 27 27 26 26 26 26 26 26 27 28 29 30 31 30 27 25 24 24 24 23 24 26 26 26 26 27 28 28 27 25 25 25 25 26 23 23 23 22 21 18 17 17 16 17 18
29 29 29 29 29 29 28 28 28 28 28 28 28 28 27 27 26 25 25 25 24 24 24 24 24 24 24 23 23 24 24 24 24 24 24 24 24 24 24 24 24 25 25 26 26 25 26 27 28 28 29 29 29 30 31 31 29 27 26 26 25 24 23 24 26 25 25 25 26 25 24 24 23 21 22 24 24 23 22 22 21 18 15 15 15 14 16 17
27 28 28 29 29 28 28 27 27 27 27 27 27 27 27 26 25 24 24 24 24 24 24 24 24 24 23 22 22 23 23 23 23 22 22 22 23 23 23 23 24 24 24 24 25 26 27 28 29 29 29 28 28 29 29 29 28 27 27 26 24 23 23 24 25 25 25 25 25 23 22 23 20 17 19 21 23 22 22 21 20 17 15 15 15 15 15 16
26 27 27 27 28 28 27 26 26 26 26 25 26 26 25 25 24 24 24 24 24 24 24 24 24 23 22 22 22 21 21 21 20 19 20 20 20 21 21 22 22 23 23 23 24 26 27 27 27 27 28 27 27 28 28 27 27 26 26 25 23 23 22 22 23 25 26 26 25 24 24 22 17 16 19 23 25 22 22 21 19 17 16 16 16 15 14 16
24 25 25 26 26 27 26 26 25 25 24 24 24 24 24 24 24 23 23 23 23 23 24 24 23 22 21 22 21 20 20 20 18 17 18 17 18 18 19 20 21 21 22 23 24 24 24 24 24 25 26 25 26 26 26 26 26 27 26 25 24 23 21 21 23 26 27 29 28 27 26 21 18 21 24 28 27 22 21 22 19 17 16 18 17 14 14 17
22 23 24 25 25 25 25 24 24 23 23 23 23 23 23 23 23 23 23 23 23 23 24 23 22 21 22 21 20 19 20 19 16 15 16 16 16 16 17 18 19 20 21 22 22 22 23 23 23 24 24 24 25 26 25 26 26 27 27 26 25 24 23 24 26 27 28 30 29 30 29 21 21 26 27 29 26 20 21 22 19 18 18 19 18 17 18 20
20 21 22 23 23 24 24 23 23 23 22 22 22 22 22 22 22 23 23 23 23 23 23 23 22 21 21 21 20 19 20 19 16 15 15 15 15 15 16 17 18 19 20 22 22 23 24 23 23 23 22 23 24 25 26 26 26 27 26 26 26 25 26 27 28 28 28 29 29 31 29 22 23 28 29 29 24 20 23 23 20 20 21 20 20 19 20 20
18 19 20 21 22 22 23 23 22 22 22 22 21 22 22 22 22 22 23 23 23 23 23 22 22 21 21 21 20 19 20 19 16 15 15 15 15 14 15 16 17 19 20 22 23 24 24 23 23 23 23 23 24 26 26 27 26 25 25 26 26 26 26 27 28 27 27 29 29 29 27 23 26 28 29 28 23 22 25 24 21 21 22 21 21 20 19 19
18 18 18 19 20 21 22 22 22 22 22 21 21 22 22 22 22 23 23 23 23 23 22 22 21 21 21 21 19 19 19 19 17 16 16 15 15 15 15 16 17 18 19 20 21 22 22 22 23 23 24 25 26 26 26 26 26 25 26 27 26 26 25 25 25 26 28 29 28 27 26 25 26 29 29 27 24 24 26 24 21 21 21 22 21 19 18 18
17 17 18 18 19 20 21 22 22 22 22 22 22 22 22 22 23 23 23 23 23 22 22 21 21 21 21 20 19 18 18 18 18 17 16 16 16 15 15 16 17 17 18 18 19 20 20 21 21 22 24 25 26 26 25 25 25 26 27 27 25 25 24 23 23 24 25 24 23 25 26 25 26 29 29 28 25 24 24 22 20 20 21 22 20 18 17 18
16 16 17 17 18 19 20 21 21 22 22 22 22 22 23 23 23 23 24 24 23 22 22 21 21 21 20 19 19 17 17 18 18 18 17 17 17 16 16 16 16 17 17 17 18 18 19 20 20 21 22 22 23 23 22 24 25 26 26 24 24 24 23 23 21 21 21 18 19 23 24 25 26 27 27 26 24 23 22 20 18 19 20 19 19 18 18 18
15 15 16 16 17 18 19 20 21 21 22 22 22 23 23 23 23 24 23 24 24 23 23 22 21 20 19 17 17 16 16 18 18 18 18 17 17 17 17 17 16 16 17 17 18 18 19 19 19 20 19 19 20 21 22 24 25 25 24 22 23 24 24 22 20 20 21 17 17 21 21 22 24 24 25 24 21 20 20 18 17 17 16 16 18 18 16 16
15 15 15 16 16 17 18 19 20 21 21 22 22 23 23 23 23 23 23 24 24 24 24 22 21 21 19 17 16 16 17 18 18 18 18 18 18 18 18 17 16 16 17 17 17 17 18 18 18 19 19 19 20 22 25 25 24 23 22 22 24 25 24 24 23 21 20 17 16 19 19 20 20 19 19 19 16 16 16 17 17 14 13 16 18 17 13 13
16 16 16 16 16 17 17 18 19 20 20 21 22 23 23 22 22 22 23 24 25 25 25 24 23 22 20 18 17 17 17 17 17 18 18 18 18 18 17 17 17 17 17 17 16 16 17 16 17 19 20 21 22 24 25 24 23 23 23 24 26 26 25 25 24 20 18 17 16 16 17 18 19 16 13 13 13 14 16 17 14 11 13 16 17 16 13 12
17 17 17 17 17 18 18 18 18 18 19 20 21 21 21 21 22 22 23 24 24 25 25 25 25 23 21 20 18 17 17 18 18 18 17 18 19 18 17 17 18 18 17 16 15 16 18 18 18 19 19 19 21 22 22 22 22 23 24 25 26 27 25 24 22 19 18 18 16 14 15 17 19 17 12 11 12 13 15 14 12 12 13 15 16 16 15 12
18 17 17 17 18 19 19 19 19 19 19 19 19 19 20 21 21 22 23 23 24 25 25 25 26 25 24 22 19 19 19 19 19 18 18 19 20 19 18 18 19 17 16 16 17 18 19 20 19 19 19 19 20 21 20 19 20 21 24 26 28 27 26 23 21 19 19 19 19 18 15 15 16 15 14 14 15 14 14 14 14 14 14 16 18 18 16 13
20 19 18 17 18 19 20 20 20 19 19 19 18 19 20 21 22 23 23 23 24 25 24 24 26 26 25 24 22 20 20 20 20 19 19 20 20 19 19 20 19 17 16 17 19 21 21 21 21 21 21 21 22 22 21 19 18 20 24 27 29 28 26 24 22 21 22 21 22 22 17 14 14 15 15 16 17 16 16 16 17 16 16 18 19 18 19 17
23 22 21 20 19 19 19 21 20 20 20 19 19 19 20 21 22 23 23 23 24 24 23 23 24 26 27 26 23 21 21 21 20 20 20 20 20 20 22 22 19 18 19 19 20 21 21 21 21 22 22 22 23 24 23 21 19 20 24 29 30 29 27 25 24 24 23 23 24 23 18 15 16 17 17 18 18 19 20 20 19 19 19 20 20 20 21 21
24 24 23 22 21 20 20 20 20 20 20 18 18 21 22 23 22 22 23 22 22 23 22 22 24 26 28 26 22 22 22 21 21 22 22 22 22 23 24 23 21 21 22 22 21 21 21 21 22 22 22 22 23 24 24 23 22 21 25 30 32 32 29 26 26 26 25 25 27 25 21 19 20 20 20 21 21 21 22 22 21 22 22 21 21 21 22 23
24 25 25 24 23 22 21 20 20 19 19 18 19 22 23 23 23 22 24 22 22 23 21 21 23 25 26 26 24 24 23 23 24 24 23 23 23 23 24 22 22 23 25 24 23 22 23 23 22 21 21 22 24 24 24 24 23 21 24 31 34 34 32 29 28 29 29 28 28 28 25 24 24 23 24 25 25 24 24 24 24 25 25 24 22 22 24 25
24 24 25 25 25 24 23 22 21 19 19 19 21 23 23 23 23 22 23 22 21 22 22 22 23 22 25 26 24 24 24 24 25 25 25 26 25 24 24 22 22 25 27 25 22 22 24 23 22 22 22 23 24 25 25 24 22 20 24 31 35 36 34 32 30 32 34 32 31 31 29 26 26 27 27 28 28 29 28 28 28 28 28 27 25 24 26 27
25 24 24 24 25 25 25 24 23 21 20 20 22 22 22 23 22 22 22 20 18 19 21 23 24 23 25 25 22 23 23 23 23 24 26 28 27 26 24 23 24 27 29 27 24 24 24 25 24 24 24 25 25 26 27 24 20 21 24 29 35 37 35 34 32 32 35 34 33 34 32 29 28 28 29 30 31 32 33 33 32 31 30 30 29 28 29 31
26 25 24 24 24 24 25 25 25 23 22 22 23 22 22 23 23 23 22 18 17 17 18 21 23 24 26 24 21 23 23 22 21 21 22 24 26 26 25 26 28 29 29 27 26 25 25 26 26 25 25 26 27 26 25 22 19 20 23 26 31 37 38 36 34 34 35 34 34 35 34 32 31 29 29 30 31 33 35 36 35 33 32 33 32 32 33 33
28 26 25 24 24 24 24 26 26 25 24 24 24 23 23 23 24 23 21 17 18 19 19 21 22 23 25 24 22 23 23 22 21 20 20 22 24 24 25 27 28 29 29 28 26 26 26 26 26 25 24 25 25 23 21 20 19 18 20 22 26 33 38 39 38 37 36 35 35 35 35 35 35 33 31 29 29 29 30 32 33 33 33 33 34 34 34 33
29 28 26 26 26 24 25 27 25 25 26 26 25 25 25 25 25 23 19 18 20 21 22 23 24 23 24 25 24 24 24 24 23 21 20 21 22 22 22 24 26 27 29 27 25 25 26 25 25 24 23 23 22 20 19 19 18 17 18 20 22 27 34 38 40 40 39 38 37 37 37 37 36 36 32 29 28 28 29 30 31 32 32 32 33 33 32 32
30 29 27 28 27 26 29 29 26 25 27 27 27 27 27 27 25 21 19 20 21 22 23 25 26 27 27 27 26 27 27 27 26 24 22 22 22 21 22 24 26 27 28 27 25 25 24 24 24 23 22 21 20 20 19 18 18 18 18 19 21 25 29 34 39 40 40 39 38 39 38 37 39 39 34 30 29 29 30 31 32 32 31 31 31 31 31 31
29 28 28 28 29 29 32 32 28 27 28 28 28 28 29 27 23 19 19 21 22 24 25 25 27 28 28 28 29 30 31 29 29 27 26 26 25 24 24 25 27 27 27 27 26 25 24 24 24 22 20 20 19 19 18 18 19 18 19 20 22 25 27 30 34 38 39 39 39 39 37 37 39 39 36 31 29 29 29 29 31 32 33 32 32 32 31 30
29 27 27 28 29 31 35 34 31 29 29 29 30 30 29 25 21 19 19 22 25 27 27 26 26 27 27 28 28 31 32 30 30 29 27 27 26 24 22 24 27 28 28 27 26 26 25 24 23 21 21 20 18 18 20 21 20 20 21 22 22 24 25 26 29 33 36 38 38 37 35 34 35 34 33 30 27 28 28 28 28 30 31 32 32 33 33 31
29 27 26 27 30 33 36 35 32 31 31 32 33 31 27 23 22 20 21 23 26 27 27 27 27 27 26 27 28 30 31 31 31 30 28 27 25 24 21 22 25 26 26 26 26 27 25 24 24 23 22 21 18 19 21 21 22 22 22 23 23 25 26 25 25 28 30 31 31 32 31 31 31 30 30 27 25 25 27 27 28 29 30 30 31 31 32 31
30 28 27 27 30 34 36 34 34 33 32 34 35 31 27 24 23 22 23 25 26 27 27 27 28 28 27 27 28 30 30 31 32 31 30 28 27 26 24 23 24 24 24 24 25 26 25 23 24 25 25 23 20 21 23 23 23 23 22 22 23 26 27 26 25 26 27 27 26 26 26 27 29 29 28 26 24 23 23 25 27 28 29 30 30 29 28 27
30 30 29 28 30 33 33 32 33 33 34 36 36 32 28 26 24 24 25 26 27 28 28 28 28 29 29 28 29 31 31 31 31 31 30 30 31 30 27 26 27 25 24 24 24 25 26 23 23 25 27 27 24 23 25 25 23 22 21 21 23 24 25 26 26 26 26 24 23 23 23 24 27 27 26 25 24 23 22 23 24 25 27 28 28 26 26 25
29 31 31 29 30 31 30 30 31 33 35 37 36 33 30 28 26 26 27 28 29 30 30 29 30 30 30 30 29 31 33 31 30 30 31 31 31 29 26 26 27 26 24 25 25 27 27 25 23 24 26 26 24 24 27 26 23 21 22 23 23 24 24 24 24 24 23 21 20 20 20 22 24 24 23 22 22 21 21 22 22 23 23 24 24 23 22 23
28 30 30 29 31 31 30 30 31 32 33 34 33 32 31 29 28 28 29 30 31 32 31 31 31 31 31 32 31 30 31 32 32 31 31 33 32 28 25 26 27 26 27 27 28 29 28 26 25 25 24 25 25 25 27 27 24 22 24 25 25 25 25 24 23 22 22 21 20 19 19 19 20 21 21 21 21 22 22 22 23 23 23 23 23 22 22 23
29 29 29 30 32 32 31 31 31 30 29 29 29 30 31 31 30 30 31 32 31 31 33 33 33 32 32 33 33 31 30 32 35 34 33 34 34 32 30 30 29 29 29 30 31 31 28 27 27 26 24 25 27 27 27 27 25 23 24 26 28 28 26 25 24 25 25 23 22 22 20 19 19 19 20 20 21 22 22 23 23 23 23 22 21 21 21 21
30 30 28 29 31 32 33 32 31 30 28 27 27 29 31 33 32 31 33 34 32 31 33 35 34 34 34 34 34 34 33 32 32 34 35 35 35 35 33 32 32 32 32 33 34 33 30 28 28 27 25 25 27 28 27 27 26 26 25 26 29 30 29 28 27 28 28 27 27 26 24 22 21 21 20 20 20 21 21 21 21 21 20 19 19 19 19 21
29 30 28 28 30 32 34 34 33 31 29 27 27 28 30 32 33 33 35 36 33 32 35 36 36 35 35 35 34 34 35 34 29 27 33 37 37 36 34 32 31 32 33 36 36 34 32 30 29 28 27 27 29 30 29 29 30 29 28 28 28 29 29 29 29 30 30 29 29 28 27 25 23 22 21 20 21 21 21 21 21 20 20 19 20 20 21 22
25 28 28 27 29 31 34 35 34 31 31 30 30 28 29 31 32 34 36 37 35 35 37 38 38 38 37 36 35 34 35 36 30 25 29 35 36 36 37 35 32 31 32 36 38 37 34 33 31 30 29 30 32 33 32 32 32 32 31 29 28 28 28 28 29 30 30 30 30 29 27 26 24 22 21 20 20 20 21 21 21 21 21 21 21 21 22 22
22 24 25 24 27 30 33 34 32 30 32 33 32 30 29 30 33 35 38 39 38 38 39 39 40 40 40 38 37 35 35 34 32 29 29 32 33 35 37 36 34 33 34 35 38 38 37 36 35 33 32 32 34 35 36 34 33 34 33 31 30 30 29 29 29 29 30 30 30 30 29 27 26 25 25 23 21 21 20 21 21 22 22 23 23 23 23 23
19 22 24 23 24 27 30 32 33 33 34 33 32 31 30 30 33 36 38 40 40 40 41 41 41 41 41 41 40 39 37 34 33 32 31 32 33 34 35 35 35 34 35 35 36 37 38 39 38 36 35 34 34 34 35 36 35 33 33 32 31 31 31 31 31 31 30 30 31 31 30 29 29 29 29 28 26 24 24 25 26 26 27 27 27 26 25 25
17 21 26 28 26 27 27 28 30 34 36 34 32 30 29 29 31 33 37 39 41 42 42 43 43 42 41 42 42 40 39 37 35 34 34 34 35 34 34 35 36 35 32 30 31 32 36 39 40 39 37 36 36 35 35 37 37 35 33 31 31 32 32 33 33 33 32 32 33 33 33 32 31 31 31 31 30 29 29 28 29 28 28 28 27 26 25 25
14 20 27 31 30 28 28 27 27 29 32 33 32 29 28 28 29 31 35 38 40 42 43 43 43 43 42 42 41 38 37 36 35 35 36 36 37 37 36 35 37 35 30 26 25 27 31 36 39 39 38 37 37 37 37 37 38 37 36 33 32 32 34 34 35 34 34 35 37 37 36 34 34 33 34 33 33 32 32 30 30 30 29 29 29 28 28 28
11 18 26 31 31 28 26 26 27 29 30 31 30 29 28 28 28 30 33 36 38 41 43 43 43 43 43 42 41 39 36 33 33 35 36 37 38 39 39 37 37 37 35 31 29 27 29 31 33 35 37 37 37 39 39 38 37 36 37 37 36 35 35 36 36 35 35 37 39 39 38 37 36 36 36 35 35 35 35 34 34 34 34 34 34 33 33 34
7 14 22 28 30 29 25 22 21 25 29 30 29 29 28 28 27 29 31 34 36 39 41 42 43 43 42 42 41 40 38 34 33 34 35 37 38 38 38 38 37 38 37 35 33 32 31 30 29 29 31 33 34 35 35 33 31 32 33 34 35 35 35 36 35 35 35 37 38 39 39 39 39 38 38 38 38 38 38 38 39 39 38 38 38 37 38 38
7 9 18 24 27 28 27 25 22 21 24 26 27 28 28 28 28 28 30 32 34 36 38 40 42 42 42 43 42 41 39 37 35 35 35 35 36 36 36 36 35 36 36 35 33 33 33 32 31 30 29 30 31 31 32 31 31 32 32 33 33 35 36 36 36 35 35 36 38 39 40 40 40 40 40 40 40 40 41 42 42 42 42 42 42 42 42 43
10 4 13 21 24 25 26 26 24 21 20 23 25 25 26 27 28 28 29 30 31 32 35 37 39 40 40 41 41 40 39 39 38 39 39 38 37 37 37 36 36 36 36 35 33 32 32 33 33 34 34 34 34 35 36 37 37 37 37 36 36 36 37 38 39 38 38 38 39 40 41 41 41 41 41 41 42 44 45 46 45 45 46 46 47 48 48 48
Wind_Direction
255 255 255 254 254 254 254 254 254 253 253 252 251 250 248 247 247 246 247 247 247 247 248 248 249 250 251 251 252 253 254 255 255 254 254 254 254 254 255 255 255 254 254 254 255 254 253 253 253 252 252 252 252 252 252 253 255 256 255 255 254 251 245 241 228 216 223 222 216 217 217 215 216 217 219 223 227 231 235 242 250 256 261 265 269 273 275 278
254 255 255 255 255 255 255 255 254 254 254 253 253 252 251 250 248 248 247 247 247 247 248 249 250 251 251 252 253 254 254 255 255 255 255 255 255 255 255 255 255 254 253 253 253 254 254 254 254 254 254 255 254 254 254 255 256 256 256 254 251 244 241 238 226 215 219 221 218 217 217 216 215 218 222 225 229 235 238 242 248 255 259 263 269 272 275 279
254 254 254 254 255 255 255 255 254 254 254 254 254 253 253 252 250 249 248 248 247 247 248 249 250 251 251 252 253 254 254 255 255 255 256 256 256 256 256 256 255 254 254 253 252 253 254 255 255 255 255 255 254 254 254 255 256 256 256 254 244 236 238 235 227 219 217 220 221 218 218 219 219 221 226 230 235 239 240 243 247 253 257 262 268 271 274 278
254 254 254 254 254 255 255 255 255 254 254 254 254 254 254 253 252 251 250 249 248 248 249 250 251 252 252 253 253 254 254 255 255 256 256 256 256 256 255 254 254 254 253 253 251 251 252 253 253 253 252 252 252 253 253 254 255 255 255 251 239 235 236 235 233 226 222 223 224 223 223 224 227 232 237 241 243 244 245 248 252 257 261 265 268 270 271 272
253 253 254 254 255 255 255 255 255 255 254 254 254 254 254 253 252 252 251 250 250 249 250 251 252 253 253 253 254 255 255 256 256 256 255 255 255 255 254 253 252 252 252 251 250 249 250 249 250 250 249 248 251 252 251 251 252 252 251 245 240 237 232 234 237 232 229 228 228 229 229 230 236 242 248 256 256 254 256 258 260 263 268 271 272 274 273 272
253 253 253 254 255 255 255 255 255 255 255 255 254 255 254 254 253 252 251 251 250 251 251 252 253 253 254 254 255 256 257 257 257 256 256 255 254 254 253 252 251 250 250 249 248 248 248 247 247 247 246 247 249 250 248 249 250 248 246 243 240 236 228 232 237 235 235 234 231 233 236 237 240 244 252 261 263 264 265 263 262 266 272 277 279 280 279 277
254 253 253 253 254 255 255 255 255 256 256 257 257 257 256 255 254 253 251 251 250 251 251 252 253 253 254 254 256 257 259 259 257 257 257 256 255 254 252 251 250 248 248 247 246 246 245 245 244 244 244 245 245 243 243 246 247 245 241 238 236 234 227 229 236 236 238 239 235 236 239 241 243 246 251 257 262 266 265 262 264 270 276 279 281 282 281 280
254 253 253 253 254 254 255 255 255 256 257 258 258 258 257 256 254 253 251 250 249 249 250 251 251 252 253 253 255 257 258 259 258 257 257 256 255 254 252 251 249 247 246 245 245 244 243 241 240 241 240 239 239 237 239 243 244 242 239 237 237 238 232 229 236 238 238 241 240 239 241 243 245 246 246 254 262 265 264 264 268 274 278 280 281 283 279 274
254 253 252 252 253 254 255 255 256 256 257 258 258 258 257 256 254 252 250 249 248 248 249 250 250 250 250 251 253 255 256 257 257 256 254 254 253 253 252 251 249 247 245 243 242 241 238 237 236 237 238 239 240 239 242 246 247 244 242 243 244 245 239 235 240 243 242 243 243 243 243 245 246 245 246 254 262 265 265 265 269 273 276 280 282 279 273 272
253 252 251 251 252 253 254 255 256 258 258 259 259 258 257 256 254 252 249 247 246 246 248 248 247 248 248 249 250 251 252 253 253 254 253 252 252 251 251 250 248 246 244 241 238 235 234 235 237 239 242 244 245 244 246 249 251 248 246 249 249 246 243 240 243 246 247 247 247 248 246 246 247 249 252 257 260 263 265 265 268 271 275 277 278 274 271 276
254 251 251 250 251 252 253 255 256 258 259 259 259 257 256 254 253 251 249 246 245 245 246 246 245 245 245 246 246 246 249 249 249 252 253 253 252 251 250 248 246 244 241 238 236 236 236 238 241 244 245 246 247 246 248 248 250 249 249 251 250 247 245 243 243 246 250 251 252 252 250 248 250 253 257 259 258 257 260 264 267 269 275 274 271 268 265 270
257 253 251 250 250 250 252 253 255 257 258 258 257 256 254 253 252 250 248 246 245 243 244 245 243 242 242 243 242 243 246 247 247 249 251 253 252 251 250 247 244 241 239 238 238 239 240 242 243 244 245 247 247 247 248 248 248 249 249 250 250 249 248 246 244 245 247 249 250 252 252 251 251 253 254 256 254 251 255 259 264 267 268 266 263 263 258 260
259 255 252 250 249 249 250 252 254 255 257 256 256 254 253 252 251 249 247 245 243 242 244 243 240 240 240 240 240 241 243 244 245 248 250 251 250 250 248 246 242 239 238 238 238 238 238 239 240 242 243 245 247 248 248 247 247 248 248 249 249 248 246 243 241 241 243 246 247 249 250 247 247 249 249 252 252 248 251 253 256 258 256 257 258 258 257 259
263 258 254 251 249 249 249 251 253 254 254 254 254 253 252 251 250 248 245 243 242 242 242 240 239 239 240 239 238 240 244 244 243 246 250 250 248 246 244 244 240 237 235 234 233 234 235 235 236 238 238 240 243 244 245 244 243 245 246 246 245 244 243 243 242 243 245 246 245 247 250 244 243 248 248 251 252 248 250 250 249 250 251 254 254 255 259 263
266 262 257 253 250 249 249 250 251 252 252 252 252 252 251 249 248 246 244 242 241 241 239 238 238 239 240 239 237 238 244 246 243 243 246 249 248 244 242 241 239 236 235 234 234 234 235 234 234 234 232 232 235 238 240 240 240 240 241 241 240 240 242 245 246 246 244 243 242 244 247 242 240 246 248 250 250 246 247 249 247 248 250 252 253 257 262 268
268 264 259 255 252 250 250 250 251 251 251 251 250 250 249 247 246 245 243 241 239 237 236 237 238 238 239 240 238 237 242 246 245 242 241 244 246 243 239 238 237 236 235 234 235 236 235 234 233 233 232 231 232 235 236 238 237 234 235 237 238 240 242 244 246 243 242 241 239 239 240 238 239 242 245 246 243 242 245 246 244 245 247 248 252 258 261 269
269 265 261 257 254 252 251 251 251 251 250 250 249 248 247 245 244 244 242 240 236 234 235 237 238 238 239 240 239 238 240 244 245 242 240 240 242 241 239 238 237 236 235 235 235 235 234 233 233 233 234 234 234 233 234 235 234 232 234 236 238 241 239 238 238 237 239 238 233 235 236 234 236 239 242 242 240 240 242 241 239 239 242 244 250 257 261 274
271 267 263 260 257 255 253 252 251 251 250 250 249 247 245 244 243 242 241 238 233 230 232 235 236 238 240 241 242 241 242 243 244 244 241 239 239 241 241 239 237 235 235 234 235 235 234 233 232 233 234 237 237 233 231 232 230 231 234 233 233 235 231 229 227 227 230 224 223 232 234 234 236 239 243 243 241 237 236 238 235 233 237 243 249 255 266 283
272 268 265 261 258 256 255 253 252 251 251 250 248 246 244 243 242 241 240 237 233 229 229 233 236 239 241 242 244 245 243 243 243 244 244 241 239 239 239 239 237 235 234 233 235 235 234 233 232 231 231 233 234 229 227 229 228 229 229 226 226 229 228 221 213 217 221 213 217 225 227 232 237 240 242 243 240 234 234 235 229 226 233 246 256 261 273 290
272 269 266 262 259 257 255 254 252 251 250 249 248 246 244 242 241 240 239 236 233 231 230 231 234 237 238 240 242 243 242 241 241 241 242 242 240 240 239 238 236 235 233 232 233 235 235 234 233 230 226 225 225 223 226 228 226 225 221 218 223 227 225 214 204 210 218 215 220 226 225 228 232 236 238 238 234 231 234 235 229 229 240 253 263 270 281 287
272 269 266 264 261 258 256 254 252 251 250 249 248 246 245 244 242 240 237 235 233 232 232 232 233 236 239 241 240 240 242 242 239 239 239 240 239 238 237 236 235 233 232 230 231 233 232 231 232 231 229 226 225 226 229 228 226 223 216 214 220 223 220 210 203 206 212 212 218 228 231 226 219 218 223 231 234 237 241 242 239 241 251 262 270 278 285 279
272 269 267 264 262 260 258 255 253 252 251 250 249 249 248 245 242 240 237 236 233 231 232 234 236 237 238 240 240 241 244 243 238 236 237 238 238 236 235 234 234 234 232 230 228 228 227 226 227 229 230 230 229 230 231 228 226 222 213 212 217 220 218 210 205 208 207 203 204 212 225 226 218 215 225 244 251 251 248 245 245 248 259 269 276 285 291 279
269 269 267 265 263 261 259 256 254 253 251 251 251 250 249 246 241 239 237 237 236 233 232 234 237 238 238 240 240 241 244 244 240 236 235 237 238 238 236 235 235 233 230 227 225 223 224 224 223 223 225 225 224 225 226 225 224 219 211 211 214 217 217 210 204 209 208 199 195 198 210 222 227 232 246 258 257 252 247 245 249 254 263 269 275 288 294 286
266 266 266 265 264 262 260 257 254 253 252 251 251 251 250 247 244 240 237 237 237 235 233 235 238 240 240 239 238 238 241 243 241 237 234 235 239 239 237 236 234 230 226 225 225 223 222 223 222 221 221 220 220 219 217 216 218 216 210 211 215 217 218 213 205 207 209 203 196 197 205 220 238 249 257 260 256 250 247 248 256 265 268 268 277 288 291 291
263 263 263 264 263 262 261 258 255 253 251 250 251 251 249 248 246 245 243 240 240 238 235 235 238 240 240 238 237 238 238 240 241 239 237 236 237 236 235 235 231 227 224 224 226 226 225 226 226 225 223 222 223 222 217 213 213 212 210 212 217 217 218 217 210 205 207 206 200 199 203 217 238 249 253 255 254 249 247 249 255 264 266 268 275 283 287 290
261 261 261 261 261 261 260 260 257 253 252 251 251 249 248 247 247 247 247 244 243 242 238 236 237 239 241 241 239 238 236 237 238 237 237 237 235 235 235 233 228 228 227 224 225 226 227 228 228 228 227 226 227 225 221 217 214 212 211 214 218 220 218 216 211 204 204 207 205 203 203 211 225 238 245 247 249 249 249 251 254 259 263 265 269 274 281 286
262 261 260 259 259 259 259 260 258 254 252 250 248 247 247 247 246 247 247 246 245 244 241 238 239 239 241 241 238 236 235 236 236 236 237 239 238 237 237 233 228 230 231 229 227 227 229 230 229 229 228 228 229 229 226 222 219 217 214 213 218 222 221 216 210 203 204 208 209 209 210 212 215 225 236 241 244 247 249 253 258 261 263 263 263 268 276 280
262 261 260 259 257 256 256 257 257 255 252 248 246 247 247 247 246 246 247 247 246 244 241 238 238 237 239 240 238 237 236 237 238 236 237 237 236 234 232 229 229 230 231 229 224 226 232 233 229 228 227 228 231 232 231 227 220 216 213 211 216 221 221 218 213 206 208 211 215 219 221 220 215 217 228 236 239 243 246 250 257 260 261 261 262 267 271 274
259 260 260 260 258 256 255 254 255 254 251 248 247 247 249 248 247 245 244 244 243 244 241 238 235 232 235 237 235 235 236 237 238 237 237 236 234 232 227 224 226 230 232 228 220 221 228 232 231 230 227 228 230 232 234 229 218 216 216 213 215 218 220 221 218 215 215 217 220 226 229 229 222 219 226 236 239 241 245 249 253 254 254 255 258 263 266 271
255 256 258 259 258 257 255 253 252 251 250 250 248 247 249 249 248 246 245 241 238 239 240 238 235 232 234 234 232 234 235 235 236 235 235 234 230 227 224 225 228 231 233 230 223 220 222 228 233 233 232 232 231 232 236 230 217 217 221 218 216 218 220 222 223 223 225 226 228 232 235 236 233 228 230 238 243 245 246 249 251 250 248 249 252 258 263 268
254 253 254 256 256 256 256 253 250 249 249 249 249 247 246 246 246 246 245 242 237 236 236 238 237 233 233 232 230 231 232 231 230 229 229 230 229 225 223 227 230 232 235 232 224 220 221 226 231 233 233 235 234 234 238 238 228 225 227 224 221 221 222 223 226 228 231 234 235 237 240 242 243 241 237 238 246 250 248 249 250 249 248 249 252 257 261 264
256 253 251 253 255 254 254 252 250 248 247 246 247 247 245 244 244 244 245 242 239 237 236 237 237 233 231 229 225 226 227 227 225 224 225 228 231 229 225 226 228 230 233 229 220 219 224 228 232 233 232 233 235 235 240 246 246 241 236 230 226 226 226 226 229 231 234 237 239 241 243 246 250 251 245 240 244 248 248 248 247 247 248 249 253 255 256 260
259 254 250 250 252 252 251 251 248 246 246 244 244 244 245 245 244 243 244 244 242 241 238 238 239 237 234 232 226 223 224 225 224 222 221 224 228 227 223 223 225 225 227 226 219 217 224 231 235 235 232 232 234 238 243 251 257 253 242 233 230 230 229 229 231 234 236 239 241 244 247 251 255 256 254 249 245 245 246 246 245 245 244 245 249 251 253 258
261 256 251 248 249 249 249 249 246 244 245 245 243 242 242 244 245 243 241 242 243 242 239 239 241 241 239 237 233 229 227 226 227 226 223 222 224 225 225 224 225 222 222 223 221 218 222 230 235 234 231 233 238 242 245 247 251 250 241 233 231 232 232 231 232 234 237 240 242 246 250 254 256 258 258 253 247 245 244 242 242 243 242 242 244 248 252 254
262 259 253 248 246 246 247 247 245 243 244 245 244 242 241 242 244 242 238 238 240 242 241 238 239 241 240 237 235 234 231 227 228 229 227 224 221 222 227 228 227 225 222 223 223 224 225 227 231 229 227 231 236 241 244 243 244 245 242 236 233 235 237 236 235 235 237 238 241 244 248 250 252 253 255 253 247 244 242 240 239 239 242 243 244 246 249 249
260 259 254 248 245 244 245 245 244 242 241 243 244 243 242 240 240 238 235 235 238 240 241 238 236 235 235 233 229 229 228 224 224 225 225 223 218 217 219 220 223 223 223 224 224 226 229 230 230 228 228 230 231 235 239 240 241 242 243 240 237 238 240 240 241 240 240 241 243 245 248 251 252 250 250 252 247 244 245 245 243 242 243 245 246 248 247 245
257 255 251 248 246 246 246 246 245 242 240 241 243 242 240 237 235 235 235 234 233 234 235 235 233 230 230 230 225 222 223 223 223 221 219 220 218 215 213 213 218 219 219 223 225 226 229 232 234 232 232 235 235 236 238 236 235 236 238 240 238 238 239 240 241 244 246 247 248 250 251 253 255 253 250 249 247 245 245 248 249 248 248 248 249 248 244 241
257 253 249 246 247 249 249 247 246 244 240 240 242 241 238 235 233 233 235 233 229 228 228 228 230 229 229 230 226 220 218 218 220 218 216 219 220 217 214 214 218 217 217 220 223 226 228 230 236 236 233 237 238 235 237 237 234 230 230 233 233 235 239 241 241 245 249 249 248 249 247 246 250 253 251 248 247 246 244 246 249 249 249 248 247 244 243 243
257 253 249 245 245 248 249 247 245 243 241 241 241 240 236 233 232 233 235 233 229 226 224 223 227 228 229 232 229 222 218 215 217 217 216 219 221 221 217 214 216 216 216 218 219 222 224 223 229 233 231 234 232 226 230 234 229 223 223 227 228 229 234 240 241 242 245 245 245 247 246 245 248 251 251 248 246 245 243 243 246 247 247 245 243 243 245 247
258 254 250 244 242 244 246 245 244 244 243 243 241 239 235 231 229 230 234 234 231 226 222 221 226 227 228 231 231 225 219 217 219 219 217 218 220 221 220 216 216 217 216 219 220 221 222 218 220 227 228 227 223 219 222 223 219 219 223 225 228 228 231 238 240 241 242 244 247 251 252 251 251 253 254 252 248 245 243 243 245 248 250 247 245 246 248 251
258 255 250 244 240 240 241 241 242 243 243 243 242 238 233 228 224 226 230 233 232 227 221 220 225 227 228 231 232 229 221 218 222 222 218 218 218 219 221 219 219 219 217 220 224 225 224 217 215 221 225 223 222 220 219 217 217 221 223 226 230 231 232 237 240 244 248 251 254 255 255 256 255 252 252 253 252 249 248 248 248 252 254 253 250 249 250 254
256 254 250 245 240 237 237 238 238 239 239 240 239 236 232 226 221 220 226 230 230 225 220 219 222 227 230 232 233 233 227 223 226 225 221 219 218 219 221 220 222 224 221 224 228 227 224 218 212 216 221 218 218 222 222 222 223 225 226 228 233 235 237 238 240 245 250 253 256 256 257 257 257 254 252 253 254 254 253 251 250 252 255 257 259 258 256 260
255 250 247 245 241 236 235 235 234 235 236 236 237 235 232 227 221 217 221 226 225 222 221 220 220 225 231 233 235 236 234 231 231 230 226 222 219 219 219 218 221 227 227 229 232 232 229 221 211 214 222 220 215 218 222 224 225 226 228 231 234 239 243 244 244 246 247 248 251 254 256 257 257 258 257 256 256 256 255 254 253 255 258 261 265 268 267 269
258 248 243 244 242 237 235 234 233 234 235 235 235 235 232 226 220 216 219 223 222 219 221 222 222 224 228 231 233 236 238 237 233 231 230 226 222 221 221 220 220 225 230 232 233 234 234 229 219 214 220 225 221 219 221 223 222 222 225 229 234 239 245 248 248 248 247 247 248 250 253 255 256 255 255 256 256 255 256 256 256 258 262 264 268 272 274 276
264 245 235 239 245 241 235 234 232 230 233 234 234 235 234 227 220 216 218 222 221 219 221 223 224 225 226 229 231 233 237 240 237 233 231 230 228 225 226 226 224 225 230 231 231 232 232 233 230 221 219 226 227 224 224 225 223 221 222 227 233 239 244 248 248 248 248 249 250 250 252 255 256 256 257 256 253 252 253 255 257 261 264 267 268 270 272 273
270 243 222 221 237 241 234 230 229 227 230 233 234 235 234 228 220 218 219 221 221 221 221 223 224 226 228 229 231 233 235 238 239 238 236 234 233 231 231 231 231 231 232 230 230 231 231 232 234 229 222 223 227 228 230 233 232 228 224 225 231 237 244 249 249 248 248 249 251 253 255 257 258 259 261 261 259 257 256 257 259 262 265 266 266 266 266 267
271 240 217 207 215 226 227 227 227 228 229 232 235 234 229 224 222 221 221 221 222 223 223 223 224 226 229 230 232 235 237 238 239 240 241 239 237 237 235 233 234 237 237 233 230 233 235 234 235 234 227 222 225 228 231 235 238 235 229 227 231 237 243 248 248 247 248 249 253 257 260 260 260 260 261 263 264 265 264 263 262 262 263 264 264 264 263 262
264 232 216 206 207 217 225 225 222 223 226 229 229 227 225 225 225 224 224 224 224 225 225 226 226 227 229 232 233 234 236 240 242 242 244 244 243 243 243 241 240 243 246 246 243 242 242 238 235 236 233 227 226 227 227 230 235 235 233 233 236 238 241 244 246 247 250 253 258 261 263 262 261 260 260 261 262 264 264 264 262 261 261 261 263 265 265 263
263 228 215 208 206 211 219 224 226 228 228 227 227 227 228 230 229 228 227 226 226 226 227 228 229 229 230 233 235 236 236 239 243 245 247 248 247 248 249 250 251 253 256 257 253 249 247 244 239 237 236 233 230 229 229 231 233 234 234 236 238 240 241 244 246 249 252 255 258 261 262 263 262 261 260 260 261 262 263 263 261 261 261 262 263 264 264 265
285 229 216 210 209 209 210 215 226 235 235 232 232 233 234 233 231 230 230 228 227 228 229 229 231 231 232 233 235 237 238 238 240 243 246 248 248 248 250 253 256 259 260 260 256 251 248 248 246 243 241 241 239 238 240 242 241 241 240 239 239 240 241 244 247 251 254 256 257 259 259 260 260 260 261 262 263 264 265 265 265 265 265 265 264 264 263 264
333 234 217 212 211 213 216 217 223 233 239 239 237 236 235 234 232 232 232 230 229 229 230 231 232 233 233 234 235 237 239 239 239 239 241 244 246 248 250 252 256 258 259 259 257 252 248 246 246 248 251 252 252 252 254 256 255 254 252 249 246 244 244 246 248 250 252 253 254 256 256 257 259 260 262 262 263 264 266 268 269 270 270 270 269 268 267 266
357 267 221 214 212 214 218 221 225 228 231 237 240 238 236 234 232 232 232 233 232 232 232 233 234 236 236 236 237 237 237 239 240 240 240 240 244 249 252 254 255 256 256 256 254 251 247 246 248 250 253 254 254 254 256 257 258 258 258 257 255 252 250 250 250 250 249 250 250 252 253 256 257 259 261 262 262 264 266 268 269 270 271 272 272 272 272 271
Height
5747 5747 5748 5748 5748 5748 5749 5749 5750 5750 5751 5751 5752 5753 5753 5754 5755 5755 5756 5757 5757 5758 5759 5759 5760 5760 5761 5761 5762 5762 5762 5763 5763 5764 5764 5765 5766 5766 5767 5768 5769 5770 5771 5771 5771 5772 5773 5774 5775 5776 5777 5778 5779 5779 5780 5781 5782 5784 5785 5786 5787 5787 5787 5788 5790 5790 5789 5789 5789 5789 5790 5789 5790 5791 5792 5793 5794 5795 5796 5796 5796 5797 5798 5799 5799 5799 5799 5799
5745 5745 5745 5746 5746 5746 5747 5747 5747 5748 5748 5749 5750 5750 5751 5751 5752 5753 5754 5754 5755 5756 5756 5757 5757 5758 5758 5759 5759 5759 5760 5760 5760 5761 5761 5762 5763 5764 5765 5766 5766 5767 5768 5768 5769 5769 5770 5771 5773 5774 5774 5776 5777 5778 5778 5779 5781 5782 5783 5784 5785 5785 5785 5786 5787 5788 5787 5787 5787 5787 5788 5787 5786 5788 5790 5792 5793 5794 5794 5794 5794 5795 5796 5796 5797 5797 5797 5797
5742 5742 5743 5743 5743 5744 5744 5745 5745 5746 5746 5747 5747 5748 5748 5749 5750 5750 5751 5752 5752 5753 5754 5754 5755 5755 5756 5756 5757 5757 5757 5757 5758 5758 5759 5760 5760 5761 5762 5763 5764 5764 5765 5766 5767 5767 5768 5769 5770 5771 5772 5773 5774 5775 5776 5777 5778 5779 5781 5783 5783 5782 5782 5783 5784 5785 5785 5784 5784 5785 5786 5786 5785 5786 5790 5792 5792 5793 5793 5792 5793 5793 5794 5794 5795 5795 5795 5795
5739 5740 5740 5741 5741 5741 5742 5742 5743 5743 5744 5744 5745 5745 5746 5747 5747 5748 5749 5749 5750 5751 5751 5752 5752 5753 5753 5754 5754 5754 5754 5755 5755 5756 5757 5757 5757 5758 5759 5760 5761 5761 5762 5763 5764 5765 5766 5767 5768 5769 5770 5771 5771 5773 5774 5775 5776 5776 5779 5780 5780 5780 5780 5781 5782 5782 5782 5781 5782 5782 5784 5784 5785 5786 5789 5791 5792 5792 5791 5790 5791 5791 5792 5793 5793 5793 5793 5793
5736 5737 5737 5738 5738 5739 5739 5740 5740 5741 5741 5742 5742 5743 5743 5744 5745 5745 5746 5747 5747 5748 5749 5749 5750 5750 5751 5751 5751 5752 5752 5752 5753 5753 5754 5754 5754 5755 5756 5757 5758 5758 5759 5760 5761 5762 5763 5764 5765 5767 5768 5769 5769 5770 5772 5772 5773 5774 5776 5777 5777 5778 5779 5779 5780 5780 5780 5780 5780 5780 5782 5783 5785 5786 5787 5790 5790 5789 5789 5788 5789 5789 5790 5791 5791 5791 5791 5791
5733 5734 5734 5735 5735 5736 5736 5737 5738 5738 5739 5739 5740 5740 5741 5741 5742 5743 5744 5744 5745 5746 5746 5747 5747 5748 5748 5749 5749 5749 5749 5749 5750 5750 5751 5751 5752 5752 5753 5754 5755 5756 5756 5757 5758 5759 5761 5762 5763 5765 5766 5766 5767 5769 5769 5769 5769 5771 5773 5775 5775 5776 5777 5777 5778 5778 5778 5778 5778 5778 5780 5782 5783 5784 5785 5787 5787 5787 5787 5787 5787 5788 5789 5789 5789 5789 5789 5789
5730 5731 5731 5732 5733 5733 5734 5734 5735 5735 5736 5736 5737 5737 5738 5739 5739 5740 5741 5742 5743 5743 5744 5744 5745 5745 5746 5746 5747 5747 5747 5747 5747 5748 5748 5748 5749 5749 5750 5751 5752 5753 5753 5754 5755 5757 5758 5760 5761 5762 5763 5764 5765 5766 5766 5765 5766 5769 5771 5773 5773 5773 5774 5775 5775 5776 5776 5777 5777 5777 5778 5780 5782 5782 5784 5784 5784 5785 5785 5784 5785 5786 5788 5788 5788 5788 5788 5788
5727 5728 5728 5729 5730 5730 5731 5731 5732 5732 5733 5734 5734 5735 5735 5736 5737 5737 5738 5739 5740 5741 5741 5742 5742 5743 5743 5744 5744 5744 5744 5744 5744 5745 5745 5746 5746 5747 5747 5748 5749 5750 5750 5751 5753 5755 5756 5757 5758 5759 5760 5760 5761 5762 5762 5762 5764 5767 5769 5770 5770 5771 5772 5772 5772 5773 5774 5775 5775 5775 5777 5779 5780 5781 5782 5782 5782 5783 5783 5783 5784 5785 5786 5786 5786 5787 5786 5785
5724 5725 5725 5726 5727 5727 5728 5728 5729 5730 5730 5731 5731 5732 5732 5733 5734 5735 5735 5736 5737 5738 5739 5739 5740 5740 5741 5741 5742 5742 5741 5742 5742 5742 5743 5743 5743 5744 5744 5745 5746 5747 5748 5749 5750 5752 5753 5754 5755 5755 5756 5757 5758 5759 5760 5761 5763 5766 5767 5767 5768 5769 5771 5771 5771 5771 5772 5772 5773 5774 5775 5776 5777 5778 5779 5780 5780 5781 5781 5782 5783 5783 5784 5784 5785 5785 5784 5783
5721 5721 5722 5723 5724 5724 5725 5726 5726 5727 5727 5728 5728 5729 5730 5730 5731 5732 5733 5734 5735 5735 5736 5737 5737 5738 5739 5739 5739 5739 5739 5739 5739 5740 5740 5740 5741 5741 5742 5742 5743 5744 5745 5746 5747 5748 5749 5750 5751 5753 5754 5755 5757 5758 5759 5760 5762 5764 5764 5765 5767 5768 5769 5769 5770 5770 5770 5770 5771 5772 5773 5774 5775 5776 5776 5777 5778 5779 5780 5780 5781 5781 5782 5782 5783 5783 5782 5781
5718 5718 5719 5720 5721 5721 5722 5723 5723 5724 5725 5725 5726 5726 5727 5727 5728 5729 5730 5731 5732 5733 5734 5734 5735 5736 5736 5736 5737 5737 5737 5737 5737 5737 5737 5738 5738 5739 5739 5740 5741 5741 5742 5743 5744 5745 5746 5748 5750 5751 5752 5753 5755 5756 5757 5758 5760 5761 5762 5763 5764 5765 5767 5768 5768 5768 5768 5768 5769 5770 5771 5772 5773 5774 5773 5774 5775 5777 5778 5778 5779 5780 5780 5780 5781 5781 5781 5780
5715 5716 5716 5717 5718 5718 5719 5720 5721 5721 5722 5722 5723 5724 5724 5725 5726 5726 5727 5728 5729 5730 5731 5732 5732 5733 5734 5734 5734 5734 5734 5734 5735 5735 5735 5735 5735 5736 5737 5737 5738 5739 5739 5740 5741 5743 5744 5746 5748 5749 5750 5752 5753 5754 5755 5756 5757 5758 5759 5761 5762 5763 5765 5766 5766 5765 5765 5766 5767 5768 5768 5771 5772 5771 5771 5770 5772 5775 5776 5776 5777 5778 5779 5778 5779 5779 5779 5778
5712 5713 5713 5714 5715 5716 5716 5717 5718 5719 5719 5720 5720 5721 5722 5722 5723 5724 5725 5726 5727 5728 5729 5729 5730 5730 5731 5731 5732 5732 5732 5732 5733 5733 5733 5733 5733 5734 5734 5735 5736 5736 5737 5738 5739 5741 5742 5744 5745 5746 5748 5750 5750 5751 5752 5753 5754 5755 5757 5758 5760 5761 5762 5762 5762 5762 5762 5763 5764 5764 5765 5769 5770 5768 5767 5767 5770 5773 5773 5774 5776 5777 5777 5777 5777 5776 5776 5775
5710 5710 5711 5711 5712 5713 5714 5714 5715 5716 5717 5717 5718 5719 5719 5720 5721 5722 5722 5723 5724 5725 5726 5727 5727 5728 5728 5729 5730 5730 5729 5730 5731 5731 5731 5732 5732 5732 5732 5733 5734 5734 5735 5736 5737 5738 5739 5741 5742 5744 5745 5747 5747 5748 5749 5750 5752 5752 5754 5755 5756 5758 5758 5758 5759 5760 5760 5760 5761 5761 5762 5767 5767 5765 5765 5765 5768 5771 5771 5772 5774 5775 5775 5775 5775 5774 5774 5773
5708 5708 5708 5709 5710 5710 5711 5712 5712 5713 5714 5715 5715 5716 5717 5718 5718 5719 5720 5721 5722 5723 5724 5724 5725 5725 5726 5726 5728 5728 5727 5728 5729 5730 5730 5730 5730 5730 5731 5731 5732 5732 5733 5733 5734 5735 5737 5738 5740 5741 5742 5743 5744 5745 5746 5747 5749 5750 5751 5752 5753 5754 5754 5755 5756 5757 5757 5757 5757 5758 5760 5764 5764 5762 5763 5764 5767 5768 5768 5770 5773 5773 5773 5773 5773 5772 5772 5771
5706 5706 5706 5707 5707 5708 5708 5709 5710 5710 5711 5712 5713 5713 5714 5715 5716 5717 5717 5719 5720 5721 5721 5722 5723 5723 5724 5724 5725 5726 5726 5726 5727 5728 5728 5728 5729 5729 5729 5729 5730 5731 5731 5732 5733 5734 5735 5736 5737 5738 5739 5740 5741 5742 5743 5744 5746 5747 5748 5748 5750 5751 5751 5752 5753 5753 5753 5753 5755 5757 5758 5760 5761 5760 5760 5762 5765 5766 5766 5768 5770 5771 5771 5771 5771 5771 5770 5769
5704 5704 5704 5704 5705 5705 5706 5706 5707 5708 5709 5710 5710 5711 5712 5713 5713 5714 5715 5716 5717 5718 5719 5720 5720 5721 5721 5722 5723 5724 5724 5724 5725 5726 5726 5727 5727 5727 5727 5728 5728 5729 5730 5730 5731 5732 5733 5734 5735 5736 5737 5738 5739 5740 5741 5742 5743 5744 5745 5746 5747 5748 5749 5749 5750 5750 5751 5752 5754 5755 5756 5757 5758 5758 5759 5760 5763 5764 5765 5766 5768 5769 5769 5769 5769 5769 5769 5768
5702 5702 5702 5702 5703 5703 5703 5704 5705 5705 5706 5707 5708 5708 5709 5710 5711 5712 5713 5714 5715 5716 5717 5717 5718 5719 5720 5721 5721 5722 5723 5723 5723 5724 5724 5725 5725 5726 5726 5726 5727 5727 5728 5729 5729 5730 5731 5732 5733 5734 5735 5736 5737 5738 5739 5740 5741 5741 5743 5744 5745 5746 5747 5747 5748 5748 5750 5751 5752 5753 5754 5755 5756 5757 5757 5759 5760 5762 5762 5763 5765 5766 5766 5766 5767 5767 5767 5767
5700 5700 5700 5700 5700 5701 5701 5702 5702 5703 5704 5704 5705 5706 5707 5707 5708 5709 5710 5711 5712 5713 5714 5715 5716 5717 5718 5719 5720 5721 5721 5721 5722 5722 5722 5723 5724 5724 5725 5725 5725 5726 5726 5727 5728 5729 5729 5730 5731 5733 5733 5734 5735 5736 5736 5737 5738 5740 5741 5742 5743 5744 5745 5746 5747 5747 5748 5750 5751 5752 5752 5753 5754 5755 5756 5757 5758 5759 5760 5761 5762 5763 5764 5764 5765 5765 5766 5766
5699 5699 5698 5698 5698 5699 5699 5699 5700 5700 5701 5702 5703 5703 5704 5705 5706 5707 5708 5709 5710 5711 5712 5713 5714 5715 5716 5717 5718 5718 5719 5720 5720 5720 5721 5721 5722 5723 5723 5724 5724 5725 5725 5726 5726 5727 5728 5729 5730 5731 5731 5732 5733 5733 5733 5734 5737 5738 5739 5740 5741 5742 5743 5744 5745 5745 5746 5748 5749 5749 5750 5752 5753 5754 5754 5755 5756 5758 5759 5759 5760 5760 5762 5762 5763 5764 5764 5764
5697 5697 5697 5696 5696 5696 5697 5697 5698 5698 5699 5699 5700 5701 5702 5703 5704 5705 5706 5706 5708 5709 5710 5711 5711 5712 5714 5715 5716 5716 5717 5718 5718 5719 5719 5720 5720 5721 5721 5722 5722 5723 5723 5724 5725 5726 5727 5727 5728 5728 5729 5730 5731 5731 5731 5733 5735 5737 5737 5738 5739 5740 5741 5742 5743 5744 5745 5746 5747 5747 5748 5750 5752 5752 5753 5753 5755 5757 5757 5758 5758 5758 5760 5761 5761 5762 5762 5763
5695 5695 5695 5694 5694 5694 5694 5695 5695 5696 5697 5697 5698 5699 5700 5700 5701 5702 5703 5704 5705 5706 5708 5709 5709 5710 5711 5712 5713 5714 5715 5715 5716 5717 5717 5718 5718 5719 5720 5720 5720 5721 5722 5723 5724 5724 5724 5725 5725 5726 5727 5729 5729 5730 5731 5732 5733 5735 5736 5736 5737 5738 5739 5740 5741 5742 5743 5744 5745 5746 5746 5747 5748 5749 5750 5752 5753 5755 5755 5756 5756 5757 5758 5759 5759 5760 5761 5762
5693 5693 5693 5692 5692 5692 5692 5693 5693 5694 5694 5695 5696 5696 5696 5697 5698 5699 5700 5701 5702 5704 5705 5706 5706 5707 5708 5710 5711 5712 5712 5712 5713 5714 5715 5716 5716 5717 5718 5718 5719 5720 5721 5721 5722 5722 5722 5723 5724 5725 5726 5727 5728 5728 5729 5731 5732 5734 5734 5735 5735 5736 5737 5738 5739 5740 5741 5742 5743 5744 5744 5744 5745 5746 5747 5749 5750 5752 5753 5754 5754 5755 5756 5757 5757 5758 5759 5760
5691 5691 5691 5690 5690 5690 5690 5690 5691 5691 5692 5693 5693 5694 5694 5695 5696 5696 5697 5698 5699 5700 5702 5703 5704 5705 5705 5707 5708 5710 5710 5710 5711 5712 5713 5714 5714 5716 5716 5716 5717 5718 5719 5719 5720 5720 5720 5721 5722 5723 5724 5725 5726 5726 5728 5729 5730 5732 5733 5734 5734 5735 5735 5736 5737 5738 5739 5740 5741 5742 5743 5743 5744 5744 5745 5746 5747 5749 5751 5751 5752 5754 5755 5755 5756 5757 5757 5758
5688 5688 5688 5688 5688 5688 5688 5688 5688 5689 5689 5690 5691 5691 5691 5692 5693 5694 5695 5696 5697 5698 5699 5700 5701 5701 5702 5704 5706 5707 5708 5708 5709 5710 5711 5711 5712 5713 5713 5714 5716 5716 5717 5717 5717 5718 5718 5719 5720 5721 5722 5723 5724 5725 5725 5727 5729 5731 5732 5733 5733 5733 5733 5734 5735 5736 5738 5739 5740 5741 5742 5743 5743 5743 5743 5744 5745 5747 5749 5750 5751 5752 5753 5754 5755 5756 5756 5756
5685 5685 5685 5685 5685 5685 5685 5685 5686 5687 5687 5688 5688 5688 5688 5689 5690 5691 5692 5693 5694 5695 5696 5697 5698 5698 5699 5702 5704 5704 5705 5706 5706 5707 5708 5709 5710 5711 5711 5712 5713 5714 5714 5714 5715 5716 5717 5717 5718 5719 5721 5721 5722 5722 5723 5725 5726 5729 5731 5731 5731 5731 5732 5733 5733 5735 5736 5737 5738 5739 5741 5742 5742 5742 5742 5743 5744 5745 5747 5748 5749 5750 5751 5752 5753 5754 5755 5755
5681 5682 5682 5682 5682 5682 5683 5683 5683 5684 5685 5686 5685 5685 5685 5686 5687 5688 5689 5691 5692 5692 5694 5694 5695 5696 5697 5698 5700 5701 5703 5703 5704 5705 5706 5707 5708 5709 5709 5710 5711 5711 5711 5712 5713 5714 5715 5715 5716 5718 5719 5720 5720 5721 5722 5722 5724 5726 5728 5729 5728 5729 5730 5731 5731 5733 5734 5735 5736 5738 5739 5740 5741 5742 5741 5741 5743 5744 5745 5746 5747 5748 5749 5750 5752 5752 5753 5754
5678 5678 5679 5679 5679 5679 5680 5680 5681 5682 5682 5683 5682 5682 5682 5683 5684 5685 5686 5688 5689 5689 5691 5691 5692 5693 5693 5695 5697 5699 5700 5700 5701 5702 5703 5704 5705 5706 5707 5708 5709 5708 5708 5710 5712 5712 5713 5713 5715 5716 5717 5717 5718 5719 5720 5720 5723 5724 5725 5726 5726 5726 5728 5729 5730 5731 5732 5733 5735 5736 5737 5739 5740 5741 5740 5741 5742 5743 5743 5744 5745 5747 5748 5749 5750 5751 5751 5752
5675 5675 5676 5676 5676 5676 5677 5677 5678 5679 5679 5679 5680 5680 5680 5681 5682 5682 5684 5686 5686 5686 5687 5688 5689 5690 5690 5692 5694 5695 5696 5697 5698 5698 5699 5700 5701 5703 5704 5705 5705 5705 5705 5708 5710 5710 5711 5711 5712 5713 5714 5715 5716 5717 5718 5719 5721 5721 5722 5723 5724 5724 5726 5726 5727 5729 5729 5731 5732 5733 5735 5737 5739 5740 5740 5740 5740 5741 5741 5742 5744 5745 5746 5747 5748 5749 5749 5749
5671 5672 5673 5673 5673 5673 5674 5674 5674 5675 5676 5676 5677 5678 5678 5678 5679 5680 5681 5683 5684 5684 5684 5685 5685 5686 5687 5689 5691 5692 5693 5694 5695 5696 5697 5697 5699 5700 5701 5701 5701 5701 5703 5705 5707 5708 5709 5709 5709 5711 5713 5714 5715 5715 5715 5716 5718 5718 5719 5721 5722 5722 5723 5724 5725 5726 5727 5728 5730 5730 5732 5734 5736 5738 5739 5739 5738 5739 5739 5740 5741 5743 5744 5745 5746 5747 5747 5748
5667 5669 5670 5670 5670 5670 5670 5670 5671 5672 5673 5673 5674 5675 5675 5675 5676 5677 5679 5681 5681 5681 5681 5682 5683 5684 5685 5687 5688 5689 5690 5691 5692 5693 5694 5695 5696 5697 5698 5698 5699 5699 5700 5703 5705 5705 5706 5707 5708 5709 5711 5712 5712 5712 5712 5713 5715 5716 5717 5718 5720 5721 5721 5722 5723 5723 5724 5726 5727 5728 5729 5730 5732 5734 5737 5737 5737 5737 5737 5738 5739 5741 5742 5743 5744 5745 5745 5745
5663 5665 5666 5666 5666 5668 5667 5666 5668 5669 5669 5669 5670 5671 5672 5672 5673 5675 5677 5678 5678 5678 5679 5679 5680 5681 5682 5683 5685 5686 5686 5688 5689 5690 5692 5692 5693 5695 5696 5696 5697 5698 5698 5700 5703 5703 5703 5704 5706 5707 5708 5709 5710 5710 5710 5711 5712 5714 5715 5716 5718 5719 5719 5720 5721 5721 5722 5723 5724 5725 5726 5727 5728 5729 5732 5735 5735 5735 5735 5736 5737 5738 5739 5740 5741 5742 5743 5742
5659 5660 5662 5662 5663 5664 5662 5662 5664 5665 5665 5666 5667 5667 5668 5668 5670 5673 5675 5674 5674 5675 5675 5676 5676 5678 5679 5680 5682 5682 5683 5684 5686 5688 5689 5690 5691 5692 5694 5694 5694 5695 5696 5698 5700 5701 5701 5702 5703 5704 5705 5707 5707 5708 5709 5710 5710 5712 5713 5714 5715 5716 5717 5718 5718 5719 5720 5721 5722 5723 5723 5724 5724 5725 5728 5730 5732 5732 5732 5733 5734 5735 5737 5738 5738 5739 5739 5740
5654 5656 5658 5658 5659 5659 5657 5658 5661 5662 5661 5662 5663 5664 5664 5665 5668 5671 5672 5671 5671 5671 5672 5673 5674 5674 5676 5678 5679 5679 5679 5680 5682 5684 5686 5687 5688 5689 5691 5691 5692 5693 5694 5696 5697 5698 5699 5700 5701 5702 5704 5704 5705 5706 5707 5708 5708 5709 5710 5711 5712 5713 5715 5716 5717 5717 5718 5719 5720 5720 5721 5721 5721 5722 5723 5726 5728 5728 5729 5730 5731 5732 5733 5734 5735 5736 5736 5737
5650 5652 5653 5654 5654 5653 5652 5653 5656 5658 5658 5658 5659 5659 5661 5664 5667 5668 5668 5667 5667 5667 5669 5670 5671 5672 5673 5675 5677 5677 5677 5678 5679 5680 5682 5684 5686 5687 5689 5690 5690 5691 5692 5693 5694 5696 5697 5698 5699 5700 5702 5702 5704 5705 5705 5705 5706 5707 5707 5708 5710 5711 5712 5713 5714 5715 5715 5716 5717 5717 5717 5717 5718 5719 5719 5722 5724 5725 5726 5727 5728 5729 5730 5731 5732 5733 5733 5734
5646 5647 5648 5649 5648 5647 5647 5649 5652 5654 5654 5654 5654 5655 5659 5662 5663 5664 5664 5664 5664 5665 5666 5667 5669 5670 5670 5672 5673 5673 5675 5676 5676 5677 5678 5681 5683 5684 5686 5687 5687 5688 5689 5691 5692 5693 5695 5696 5697 5698 5699 5700 5701 5702 5702 5703 5704 5704 5705 5706 5707 5708 5709 5710 5711 5711 5712 5713 5714 5715 5715 5714 5715 5716 5717 5719 5721 5722 5723 5724 5725 5726 5727 5727 5729 5729 5729 5729
5641 5642 5643 5643 5643 5642 5643 5646 5647 5649 5650 5649 5649 5652 5656 5659 5660 5660 5660 5660 5661 5662 5663 5664 5665 5666 5667 5668 5669 5670 5672 5673 5673 5673 5675 5676 5679 5680 5682 5683 5684 5685 5686 5688 5689 5690 5692 5694 5695 5696 5697 5698 5699 5700 5699 5700 5701 5701 5702 5704 5705 5705 5706 5707 5708 5709 5709 5711 5712 5712 5712 5711 5711 5713 5715 5717 5718 5720 5721 5721 5722 5723 5724 5724 5725 5727 5728 5727
5636 5636 5637 5639 5639 5638 5640 5642 5643 5644 5645 5644 5645 5649 5653 5655 5656 5657 5656 5657 5658 5658 5659 5660 5661 5663 5664 5665 5665 5666 5668 5670 5670 5671 5672 5673 5674 5677 5679 5680 5681 5682 5683 5684 5686 5687 5690 5692 5693 5694 5694 5695 5697 5698 5697 5698 5698 5699 5700 5701 5702 5703 5704 5705 5706 5707 5707 5709 5709 5709 5709 5709 5708 5710 5712 5714 5715 5717 5718 5719 5720 5720 5721 5721 5722 5724 5725 5725
5631 5631 5632 5635 5635 5634 5636 5637 5638 5639 5640 5640 5642 5646 5649 5651 5653 5653 5652 5653 5654 5654 5656 5657 5658 5659 5660 5661 5662 5663 5665 5666 5667 5668 5669 5670 5671 5674 5677 5678 5678 5679 5681 5682 5683 5684 5686 5689 5691 5691 5692 5693 5694 5695 5695 5696 5697 5697 5698 5698 5699 5700 5701 5702 5703 5704 5705 5706 5707 5707 5707 5707 5707 5708 5709 5711 5713 5714 5716 5716 5717 5718 5718 5719 5719 5720 5721 5721
5626 5626 5628 5630 5630 5630 5632 5633 5633 5634 5635 5637 5639 5642 5644 5647 5648 5648 5648 5649 5650 5651 5653 5654 5655 5656 5657 5657 5659 5661 5662 5664 5665 5666 5667 5668 5670 5672 5674 5675 5676 5677 5679 5679 5680 5681 5683 5686 5688 5689 5689 5691 5692 5692 5692 5693 5694 5695 5696 5696 5696 5698 5699 5699 5700 5701 5702 5703 5704 5705 5705 5706 5707 5708 5708 5709 5711 5712 5713 5714 5715 5715 5716 5716 5716 5717 5718 5718
5620 5621 5623 5624 5624 5626 5627 5628 5628 5630 5631 5633 5635 5637 5639 5641 5643 5644 5643 5644 5646 5648 5650 5650 5651 5653 5654 5654 5656 5658 5660 5661 5661 5663 5664 5665 5667 5670 5671 5673 5674 5675 5676 5677 5677 5678 5681 5683 5686 5687 5687 5688 5689 5689 5690 5691 5692 5693 5694 5694 5694 5695 5696 5697 5698 5699 5699 5701 5701 5702 5703 5705 5705 5706 5707 5707 5708 5710 5711 5712 5712 5713 5713 5713 5714 5715 5715 5715
5614 5616 5618 5619 5620 5621 5622 5623 5624 5626 5627 5629 5631 5632 5633 5636 5638 5639 5639 5640 5642 5644 5646 5647 5648 5649 5650 5651 5653 5654 5656 5658 5658 5659 5662 5663 5665 5667 5669 5671 5672 5672 5674 5674 5674 5676 5678 5680 5683 5684 5684 5685 5686 5687 5687 5688 5689 5690 5691 5692 5692 5692 5694 5695 5696 5696 5697 5698 5699 5700 5701 5703 5703 5704 5705 5705 5706 5707 5708 5709 5710 5710 5711 5711 5712 5713 5713 5714
5608 5611 5613 5614 5615 5617 5617 5618 5620 5621 5623 5625 5626 5627 5629 5631 5634 5635 5635 5636 5639 5641 5642 5643 5645 5646 5647 5648 5650 5651 5652 5654 5656 5657 5659 5660 5662 5663 5665 5667 5669 5670 5672 5672 5673 5674 5675 5677 5680 5681 5681 5682 5683 5684 5684 5685 5686 5687 5688 5689 5690 5691 5691 5693 5693 5694 5694 5695 5696 5697 5699 5700 5701 5702 5703 5703 5704 5704 5705 5706 5707 5708 5709 5709 5710 5710 5711 5712
5603 5605 5609 5610 5611 5612 5612 5613 5616 5618 5619 5620 5621 5623 5624 5627 5629 5631 5631 5632 5635 5637 5638 5640 5641 5642 5644 5645 5648 5649 5649 5650 5654 5656 5656 5657 5658 5660 5661 5663 5665 5667 5668 5669 5671 5672 5673 5674 5676 5678 5678 5678 5679 5680 5681 5682 5683 5684 5685 5686 5688 5688 5689 5690 5691 5691 5692 5693 5694 5694 5696 5697 5698 5699 5700 5701 5701 5702 5702 5703 5704 5705 5706 5707 5707 5708 5708 5708
5598 5601 5604 5607 5607 5607 5607 5609 5612 5613 5614 5615 5617 5619 5621 5623 5625 5626 5628 5630 5632 5633 5634 5636 5637 5639 5641 5642 5644 5646 5646 5648 5651 5653 5654 5654 5656 5657 5658 5659 5662 5663 5664 5665 5667 5668 5670 5670 5672 5674 5675 5675 5675 5677 5678 5679 5679 5680 5682 5683 5684 5685 5686 5687 5688 5689 5689 5690 5691 5691 5693 5695 5696 5696 5697 5698 5699 5700 5700 5701 5702 5703 5703 5704 5705 5705 5706 5706
5594 5596 5600 5603 5604 5602 5601 5604 5607 5608 5609 5611 5613 5615 5618 5619 5620 5622 5625 5627 5628 5630 5631 5632 5634 5635 5638 5640 5641 5643 5644 5646 5648 5650 5651 5652 5653 5654 5655 5657 5659 5660 5661 5662 5663 5664 5665 5666 5667 5670 5672 5672 5672 5674 5675 5676 5676 5677 5678 5680 5681 5682 5683 5684 5685 5686 5687 5687 5688 5688 5690 5693 5693 5694 5694 5695 5696 5698 5699 5700 5700 5701 5701 5702 5703 5703 5704 5704
5590 5591 5594 5598 5600 5598 5597 5601 5604 5604 5606 5608 5610 5612 5615 5616 5617 5620 5622 5624 5625 5627 5628 5629 5631 5632 5634 5636 5638 5640 5641 5643 5645 5646 5647 5648 5650 5651 5652 5654 5656 5657 5658 5659 5660 5661 5662 5663 5664 5666 5667 5669 5670 5671 5672 5673 5673 5674 5675 5676 5677 5679 5679 5680 5682 5682 5683 5684 5684 5685 5687 5689 5690 5691 5691 5692 5693 5695 5696 5697 5697 5698 5699 5700 5700 5701 5701 5701
5586 5587 5589 5592 5595 5595 5596 5599 5601 5601 5603 5606 5607 5610 5612 5613 5615 5618 5619 5621 5623 5624 5625 5627 5628 5630 5632 5633 5636 5637 5639 5640 5642 5643 5643 5644 5646 5648 5649 5651 5653 5654 5655 5656 5657 5659 5659 5660 5661 5662 5663 5665 5666 5667 5668 5668 5669 5669 5671 5672 5673 5675 5676 5677 5678 5679 5679 5680 5680 5680 5683 5685 5686 5687 5688 5689 5690 5691 5692 5693 5694 5695 5695 5696 5697 5697 5698 5698
5582 5583 5585 5587 5590 5593 5595 5598 5599 5600 5601 5603 5605 5607 5609 5610 5613 5615 5617 5618 5620 5621 5622 5624 5626 5628 5629 5631 5633 5635 5636 5637 5638 5639 5640 5641 5643 5645 5646 5648 5649 5650 5652 5653 5654 5656 5657 5657 5658 5659 5660 5660 5662 5662 5663 5664 5664 5665 5666 5668 5669 5670 5672 5673 5674 5675 5676 5676 5676 5676 5678 5680 5681 5682 5683 5684 5685 5686 5687 5688 5689 5690 5691 5691 5692 5693 5693 5693
5581 5581 5582 5584 5586 5589 5592 5595 5596 5597 5598 5600 5602 5604 5606 5608 5610 5612 5613 5615 5617 5618 5620 5621 5623 5625 5627 5628 5630 5632 5633 5635 5636 5637 5638 5638 5639 5641 5643 5644 5645 5646 5648 5649 5651 5652 5654 5654 5654 5656 5656 5656 5657 5658 5658 5659 5660 5661 5662 5664 5665 5667 5668 5669 5670 5671 5671 5672 5672 5672 5674 5675 5676 5677 5678 5679 5680 5681 5681 5682 5683 5684 5685 5686 5687 5687 5688 5688
5580 5580 5581 5582 5584 5586 5588 5591 5593 5595 5596 5597 5599 5601 5603 5605 5607 5609 5610 5611 5613 5615 5617 5618 5620 5622 5624 5625 5627 5629 5631 5632 5633 5634 5635 5635 5636 5637 5639 5640 5642 5643 5644 5645 5647 5648 5650 5650 5651 5652 5652 5653 5654 5654 5654 5655 5656 5656 5658 5660 5662 5663 5665 5665 5666 5666 5667 5667 5667 5668 5669 5670 5671 5672 5673 5674 5675 5675 5675 5676 5676 5677 5678 5679 5680 5680 5681 5682
5580 5580 5580 5582 5583 5585 5587 5588 5590 5592 5594 5595 5596 5598 5600 5602 5604 5606 5608 5609 5611 5613 5614 5616 5617 5618 5620 5622 5623 5625 5627 5628 5630 5631 5631 5632 5633 5633 5635 5636 5637 5638 5639 5641 5642 5644 5646 5647 5648 5648 5649 5650 5650 5651 5651 5651 5651 5652 5654 5656 5658 5659 5661 5661 5661 5662 5662 5662 5663 5664 5665 5666 5667 5667 5667 5668 5668 5669 5669 5670 5671 5672 5672 5672 5672 5672 5673 5674